Weather History for Durant, OK

Change the Weather History Date:

Sunday, March 9, 2014

  Actual Average (KADM) Record (KADM)
Temperature  
Mean Temperature 50 °F -  
Max Temperature 64 °F 58 °F 80 °F (2009)
Min Temperature 37 °F 40 °F 24 °F (1998)
Degree Days  
Heating Degree Days 14    
Moisture  
Dew Point 39 °F    
Average Humidity 76    
Maximum Humidity 93    
Minimum Humidity 48    
Precipitation  
Precipitation 0.00 in - - ()
Sea Level Pressure  
Sea Level Pressure 30.26 in    
Wind  
Wind Speed 7 mph (North)    
Max Wind Speed 13 mph    
Max Gust Speed 16 mph    
Visibility 7 miles    
Events      
Averages and records for this station are not official NWS values.
T = Trace of Precipitation, MM = Missing Value Source: NWS Daily Summary

Daily Weather History Graph

Daily Weather History Graph

Search for Another Location

Airport:

Trip Planner

Search our weather history database for the weather conditions in past years. The results will help you decide how hot, cold, wet, or windy it might be!

Date:

Astronomy

Mar. 09, 2014 Rise Set
Actual Time 7:43 AM CDT 7:28 PM CDT
Civil Twilight 7:19 AM CDT 7:53 PM CDT
Nautical Twilight 6:50 AM CDT 8:22 PM CDT
Astronomical Twilight 6:21 AM CDT 8:51 PM CDT
Moon 1:33 PM CDT (3/9) 3:59 AM CDT (3/9)
Length of Visible Light 12h 34m
Length of Day
11h 44m
First Quarter, 61% of the Moon is Illuminated
Mar 9
First Quarter
Mar 16
Full
Mar 23
Last Quarter
Mar 30
New
Apr 7
First Quarter

Hourly Weather History & Observations

Time (CDT) Temp. Windchill Dew Point Humidity Pressure Visibility Wind Dir Wind Speed Gust Speed Precip Events Conditions
12:15 AM 37.4 °F 30.3 °F 33.8 °F 87% 30.30 in 10.0 mi NNW 10.4 mph - N/A   Overcast
12:40 AM 37.4 °F 31.4 °F 33.8 °F 87% 30.30 in 7.0 mi NNW 8.1 mph - N/A   Overcast
12:55 AM 37.4 °F 30.3 °F 33.8 °F 87% 30.31 in 7.0 mi North 10.4 mph - N/A   Overcast
1:15 AM 37.4 °F 31.4 °F 33.8 °F 87% 30.31 in 7.0 mi NNW 8.1 mph - N/A   Overcast
1:35 AM 37.4 °F 30.3 °F 33.8 °F 87% 30.30 in 7.0 mi NNW 10.4 mph - N/A   Overcast
1:55 AM 37.4 °F 32.1 °F 33.8 °F 87% 30.30 in 7.0 mi NNW 6.9 mph - N/A   Overcast
3:15 AM 37.4 °F 31.4 °F 33.8 °F 87% 30.29 in 7.0 mi NNW 8.1 mph - N/A   Overcast
3:35 AM 37.4 °F 31.4 °F 33.8 °F 87% 30.29 in 7.0 mi NNW 8.1 mph - N/A   Overcast
3:55 AM 37.4 °F 31.4 °F 33.8 °F 87% 30.28 in 5.0 mi NNW 8.1 mph - N/A   Overcast
4:15 AM 37.4 °F 30.3 °F 33.8 °F 87% 30.28 in 5.0 mi NNW 10.4 mph - N/A   Overcast
4:35 AM 37.4 °F 30.3 °F 33.8 °F 87% 30.28 in 5.0 mi North 10.4 mph - N/A   Overcast
4:55 AM 37.4 °F 32.1 °F 35.6 °F 93% 30.28 in 5.0 mi NNW 6.9 mph 16.1 mph N/A   Overcast
5:15 AM 37.4 °F 30.8 °F 35.6 °F 93% 30.28 in 5.0 mi NNW 9.2 mph - N/A   Overcast
5:35 AM 37.4 °F 30.8 °F 35.6 °F 93% 30.28 in 5.0 mi NNW 9.2 mph - N/A   Overcast
5:55 AM 37.4 °F 31.4 °F 35.6 °F 93% 30.29 in 5.0 mi NNW 8.1 mph - N/A   Overcast
6:20 AM 37.4 °F 31.4 °F 35.6 °F 93% 30.30 in 7.0 mi NNW 8.1 mph - N/A   Overcast
6:35 AM 37.4 °F 30.3 °F 35.6 °F 93% 30.31 in 5.0 mi NNW 10.4 mph - N/A   Overcast
6:55 AM 37.4 °F 29.3 °F 35.6 °F 93% 30.31 in 5.0 mi NNW 12.7 mph - N/A   Overcast
7:15 AM 37.4 °F 31.4 °F 35.6 °F 93% 30.32 in 5.0 mi NNW 8.1 mph - N/A   Overcast
7:35 AM 37.4 °F 32.1 °F 35.6 °F 93% 30.32 in 5.0 mi NNW 6.9 mph - N/A   Overcast
7:55 AM 37.4 °F 30.3 °F 35.6 °F 93% 30.32 in 5.0 mi North 10.4 mph - N/A   Overcast
8:15 AM 39.2 °F 35.0 °F 35.6 °F 87% 30.33 in 7.0 mi NNW 5.8 mph - N/A   Overcast
8:35 AM 39.2 °F 33.0 °F 35.6 °F 87% 30.33 in 5.0 mi NNW 9.2 mph - N/A   Overcast
8:55 AM 39.2 °F 34.2 °F 35.6 °F 87% 30.33 in 5.0 mi North 6.9 mph - N/A   Overcast
9:15 AM 41.0 °F 35.2 °F 35.6 °F 81% 30.33 in 5.0 mi NNW 9.2 mph - N/A   Overcast
9:35 AM 41.0 °F 35.8 °F 35.6 °F 81% 30.33 in 5.0 mi North 8.1 mph - N/A   Haze
9:55 AM 41.0 °F 35.8 °F 35.6 °F 81% 30.33 in 5.0 mi NW 8.1 mph - N/A   Haze
10:15 AM 42.8 °F 38.6 °F 35.6 °F 76% 30.34 in 5.0 mi North 6.9 mph - N/A   Haze
10:35 AM 42.8 °F 39.3 °F 37.4 °F 81% 30.34 in 5.0 mi NNE 5.8 mph - N/A   Haze
10:55 AM 44.6 °F - 37.4 °F 76% 30.34 in 5.0 mi Calm Calm - N/A   Haze
11:15 AM 44.6 °F 42.2 °F 37.4 °F 76% 30.35 in 5.0 mi NNW 4.6 mph - N/A   Haze
11:35 AM 44.6 °F 41.4 °F 37.4 °F 76% 30.35 in 5.0 mi NNW 5.8 mph - N/A   Haze
11:55 AM 46.4 °F 44.3 °F 37.4 °F 71% 30.35 in 5.0 mi North 4.6 mph - N/A   Haze
12:15 PM 48.2 °F - 39.2 °F 71% 30.34 in 5.0 mi North 5.8 mph - N/A   Haze
12:35 PM 50.0 °F - 41.0 °F 71% 30.34 in 7.0 mi NNW 3.5 mph - N/A   Overcast
12:55 PM 50.0 °F - 41.0 °F 71% 30.33 in 5.0 mi NW 3.5 mph - N/A   Haze
1:15 PM 51.8 °F - 41.0 °F 67% 30.32 in 7.0 mi Calm Calm - N/A   Overcast
1:35 PM 53.6 °F - 42.8 °F 67% 30.30 in 7.0 mi NNE 3.5 mph - N/A   Overcast
1:55 PM 55.4 °F - 42.8 °F 63% 30.29 in 7.0 mi NNE 3.5 mph - N/A   Overcast
2:15 PM 59.0 °F - 44.6 °F 59% 30.27 in 10.0 mi West 3.5 mph - N/A   Mostly Cloudy
2:35 PM 60.8 °F - 44.6 °F 55% 30.26 in 10.0 mi Calm Calm - N/A   Scattered Clouds
2:55 PM 60.8 °F - 44.6 °F 55% 30.25 in 10.0 mi SSE 3.5 mph - N/A   Scattered Clouds
3:15 PM 60.8 °F - 44.6 °F 55% 30.25 in 10.0 mi Calm Calm - N/A   Scattered Clouds
3:35 PM 62.6 °F - 44.6 °F 52% 30.23 in 10.0 mi Calm Calm - N/A   Scattered Clouds
3:55 PM 64.4 °F - 46.4 °F 52% 30.23 in 10.0 mi Calm Calm - N/A   Scattered Clouds
4:15 PM 62.6 °F - 44.6 °F 52% 30.22 in 10.0 mi Calm Calm - N/A   Scattered Clouds
4:35 PM 62.6 °F - 44.6 °F 52% 30.22 in 10.0 mi Calm Calm - N/A   Clear
4:55 PM 64.4 °F - 46.4 °F 52% 30.21 in 10.0 mi Calm Calm - N/A   Clear
5:15 PM 64.4 °F - 44.6 °F 49% 30.20 in 10.0 mi Calm Calm - N/A   Clear
5:35 PM 64.4 °F - 44.6 °F 49% 30.20 in 10.0 mi Calm Calm - N/A   Clear
5:55 PM 62.6 °F - 44.6 °F 52% 30.20 in 10.0 mi SSE 3.5 mph - N/A   Clear
6:15 PM 62.6 °F - 42.8 °F 48% 30.19 in 10.0 mi Calm Calm - N/A   Clear
6:35 PM 62.6 °F - 44.6 °F 52% 30.19 in 10.0 mi Calm Calm - N/A   Clear
6:55 PM 60.8 °F - 44.6 °F 55% 30.19 in 10.0 mi SE 4.6 mph - N/A   Clear
7:15 PM 59.0 °F - 42.8 °F 55% 30.19 in 10.0 mi ESE 4.6 mph - N/A   Clear
7:35 PM 55.4 °F - 42.8 °F 63% 30.19 in 10.0 mi SE 5.8 mph - N/A   Clear
7:55 PM 51.8 °F - 41.0 °F 67% 30.19 in 10.0 mi SSE 5.8 mph - N/A   Clear
8:15 PM 50.0 °F - 41.0 °F 71% 30.19 in 10.0 mi SSE 5.8 mph - N/A   Clear
8:35 PM 48.2 °F - 42.8 °F 82% 30.18 in 10.0 mi SSE 8.1 mph - N/A   Clear
8:55 PM 46.4 °F 43.5 °F 42.8 °F 87% 30.18 in 10.0 mi South 5.8 mph - N/A   Clear
9:15 PM 46.4 °F 43.5 °F 42.8 °F 87% 30.18 in 10.0 mi SSE 5.8 mph - N/A   Clear
9:35 PM 44.6 °F 43.1 °F 41.0 °F 87% 30.19 in 10.0 mi SSE 3.5 mph - N/A   Clear
9:55 PM 44.6 °F 43.1 °F 39.2 °F 81% 30.19 in 10.0 mi SSE 3.5 mph - N/A   Clear
10:15 PM 44.6 °F 43.1 °F 37.4 °F 76% 30.19 in 10.0 mi ESE 3.5 mph - N/A   Clear
10:35 PM 44.6 °F - 37.4 °F 76% 30.19 in 10.0 mi Calm Calm - N/A   Clear
10:55 PM 44.6 °F 43.1 °F 37.4 °F 76% 30.20 in 7.0 mi ESE 3.5 mph - N/A   Clear
11:15 PM 42.8 °F - 37.4 °F 81% 30.20 in 7.0 mi Calm Calm - N/A   Clear
11:35 PM 42.8 °F 41.1 °F 37.4 °F 81% 30.19 in 7.0 mi ESE 3.5 mph - N/A   Clear
11:55 PM 42.8 °F 41.1 °F 37.4 °F 81% 30.19 in 7.0 mi SSE 3.5 mph - N/A   Clear
12:15 AM 42.8 °F 41.1 °F 37.4 °F 81% 30.19 in 5.0 mi SSE 3.5 mph - N/A   Clear
12:35 AM 42.8 °F 39.3 °F 39.2 °F 87% 30.18 in 5.0 mi SSE 5.8 mph - N/A   Clear
12:55 AM 42.8 °F 40.1 °F 39.2 °F 87% 30.18 in 5.0 mi SE 4.6 mph - N/A   Clear